Retour au catalogue

FENGYUN 1C DEB

ActifSSO
NORAD 30275·DEBRIS·🇨🇳 China

Lancé May 10, 1999 depuis Taiyuan Satellite Launch Center

Loading…

Prochains Passages (prochaines 24 heures)

TLE

FraisSource: Space-Track

Époque: Sep 14, 2026, 05:16 UTC

1 30275U 99025YL  26257.21965615  .00003795  00000-0  10097-2 0  9992
2 30275  98.6214 351.6246 0037221  76.7347 314.0650 14.48729292 20565

Suivez FENGYUN 1C DEB en temps réel avec AllMySat

Download on the App Store